NOSS 3-3 (C) - Orbit

View from above orbital plane
View from above orbital plane
View from above satellite
View from above satellite

Ground track
Ground track

The orbit data is extracted from the following two-line orbital elements,

1 28541U 05004C   13133.85086626 0.00000030  00000-0  51732-4 0    09
2 28541  63.4349  36.9008 0133000   0.0803 359.9197 13.40624044    06
Epoch (UTC): 13 May 2013 20:25:14
Eccentricity: 0.0133000
inclination: 63.4349°
perigee height: 1007 km
apogee height: 1206 km
right ascension of ascending node: 36.9008°
argument of perigee: 0.0803°
revolutions per day: 13.40624044
mean anomaly at epoch: 359.9197°
orbit number at epoch: 0

The dashed part of the orbit path shows where the satellite is in the earth's shadow,  

Developed and maintained by Chris Peat, Heavens-Above GmbH. Please read the updated FAQ before sending e-mail. Imprint. DLR